Regional Weather Roundup
Issued by NWS

Home | Current Version | Previous Version | Graphics & Text | Print | Product List | Glossary On
Versions: 1 2 3 4 5 6 7 8 9 10 11 12 13 14 15 16 17 18 19 20 21 22 23 24 25 26 27 28 29 30 31 32 33 34 35 36 37 38 39 40 41 42 43 44 45 46 47 48 49
000
ASUS45 KBOU 201807
RWRCO

WEATHER ROUNDUP FOR COLORADO
NATIONAL WEATHER SERVICE DENVER/BOULDER CO
1200 PM MDT WED AUG 20 2014

NOTE: "FAIR" INDICATES FEW OR NO CLOUDS BELOW 12000 FEET WITH NO
SIGNIFICANT WEATHER AND/OR OBSTRUCTIONS TO VISIBILITY.

COZ001>005-013-030-031-201900-
...NORTHWEST COLORADO...

CITY           SKY/WX    TMP DP  RH WIND       PRES   REMARKS
CRAIG          CLOUDY    70  52  52 W12       30.08F
HAYDEN         MOSUNNY   70  46  43 W5G16     30.10F
MEEKER         PTSUNNY   69  51  52 VRB3      30.10F
MOUNT WERNER   NOT AVBL
STEAMBOAT SPGS MOSUNNY   65  51  61 W5        30.12F
WALDEN         MOSUNNY   63  45  51 SW17      30.18F
$$

COZ006>008-011-201900-
...WEST CENTRAL VALLEYS...

CITY           SKY/WX    TMP DP  RH WIND       PRES   REMARKS
GRAND JUNCTION LGT RAIN  68  60  75 W5        30.06S
MONTROSE       SUNNY     73  54  51 VRB3      30.11F
EAGLE          PTSUNNY   70  52  52 CALM      30.14F
RIFLE          MOSUNNY   70  54  56 S5        30.08S
DELTA          MOSUNNY   78  52  39 SW3       30.07F
NUCLA          PTSUNNY   73  45  35 CALM      30.15F
$$

COZ017>023-064>068-201900-
...SOUTHWEST COLORADO...

CITY           SKY/WX    TMP DP  RH WIND       PRES   REMARKS
DURANGO        SUNNY     73  40  30 VRB5G17   30.17S
CORTEZ         MOSUNNY   75  48  38 W10G18    30.15F
PAGOSA SPRINGS   N/A     66  50  57 S5        30.23F
TELLURIDE      MOSUNNY   64  41  42 CALM      30.29F
WOLF CREEK PAS NOT AVBL
$$

COZ009-010-012-014-032>034-037-058>063-201900-
...CENTRAL COLORADO...

CITY           SKY/WX    TMP DP  RH WIND       PRES   REMARKS
ASPEN          CLOUDY    64  50  60 NW3       30.20S
BUENA VISTA    MOSUNNY   71  37  28 W10G21    30.17S
COPPER MTN     PTSUNNY   54  37  54 W17G24    30.46S
BERTHOUD PASS  PTSUNNY   43  43 100 NW15G25   30.49R FOG
COTTONWOOD PAS MOSUNNY   64  37  36 W5        30.31S
GUNNISON       MOSUNNY   70  43  37 SW12      30.21F
KREMMLING      MOSUNNY   72  45  37 W16G25    30.17S
LEADVILLE      PTSUNNY   59  36  42 NW15      30.30S
MONARCH PASS   PTSUNNY   46  43  87 W26G33    30.55F
SALIDA         MOSUNNY   74  43  32 SW16G23   30.21F
SUNLIGHT       FOG       50  48  93 CALM      30.41S VSB 1/4
WILKERSON PASS NOT AVBL
$$

COZ069>075-201900-
...SAN LUIS VALLEY/SANGRE DE CRISTO MOUNTAINS...

CITY           SKY/WX    TMP DP  RH WIND       PRES   REMARKS
ALAMOSA        MOSUNNY   73  45  36 S7        30.17S
LA VETA PASS   NOT AVBL
SAGUACHE       MOSUNNY   68  45  42 NW14      30.20F
$$

COZ035-036-038>040-201900-
...NORTHERN COLORADO FRONT RANGE...

CITY           SKY/WX    TMP DP  RH WIND       PRES   REMARKS
DENVER INTL AP MOSUNNY   81  51  35 VRB5      29.96S
DMNS CITY PARK   N/A     83  47  29 E2G8      29.94F
AURORA         MOSUNNY   79  52  39 CALM      29.98F
FRONT RANGE AP NOT AVBL
ERIE MUNI ARPT MOSUNNY   82  45  27 CALM      29.93F
BOULDER MUN AP MOSUNNY   84  43  23 SW10G17   29.94S
CENTENNIAL     PTSUNNY   79  50  36 NE8       29.99F
BROOMFIELD     PTSUNNY   81  46  30 CALM      29.98S
FORT COLLINS   SUNNY     82  52  34 SW10      29.93S
LONGMONT       SUNNY     87  49  26 E6        29.94S
$$

COZ041-046-047-076>085-087-088-201900-
...PIKES PEAK/PALMER DIVIDE AND SOUTHERN FOOTHILLS...

CITY           SKY/WX    TMP DP  RH WIND       PRES   REMARKS
COLO. SPRINGS  PTSUNNY   81  45  28 SW5       30.01F
A. F. ACADEMY  MOSUNNY   80  44  27 VRB2      30.03S
ELLICOTT       PTSUNNY   80  47  31 SW8       30.00S
FALCON         PTSUNNY   78  44  29 CALM      30.07S
FORT CARSON    PTSUNNY   82  50  32 VRB6      29.98F
LIMON          MOSUNNY   84  47  27 VRB6      29.96S
MONUMENT HILL  MOSUNNY   75  45  33 N6        30.07S
TRINIDAD       MOSUNNY   85  47  26 CALM      29.98F
$$

COZ042>045-048>051-090-091-201900-
...NORTHEAST COLORADO...

CITY           SKY/WX    TMP DP  RH WIND       PRES   REMARKS
GREELEY ARPT   SUNNY     84  54  34 S6        29.92F
AKRON          SUNNY     83  53  35 VRB7      29.91F
BURLINGTON     SUNNY     86  51  29 VRB6      29.89R
WRAY             N/A     87  53  30 N14       29.85S
STERLING       SUNNY     86  63  45 S3        29.86S
HOLYOKE        NOT AVBL
FORT MORGAN    SUNNY     83  51  33 S3        29.91S
$$

COZ086-089-092>099-201900-
...SOUTHEAST COLORADO...

CITY           SKY/WX    TMP DP  RH WIND       PRES   REMARKS
PUEBLO         MOSUNNY   87  47  24 S8        29.90F
LA JUNTA       MOSUNNY   91  52  26 NW8       29.86F
LAMAR          MOSUNNY   93  52  24 E6        29.82F
SPRINGFIELD      N/A     91  49  23 S15G24    29.89F
$$


USA.gov is the U.S. government's official web portal to all federal, state and local government web resources and services.